START_TIME,STEP,MOV.,H8,t_acc.,H43,t_acc.,M25,t_acc.,H9,t_acc.
1981-08-25 09:00:30.480 ,1,0,0.,12.0,0.,12.0,0.,12.0,0.,12.0
1981-08-25 09:00:42.480 ,1,0,0.,12.0,0.,12.0,0.,12.0,0.,12.0
1981-08-25 09:00:54.480 ,2,0,0.,12.0,0.,12.0,0.,12.0,0.,12.0
1981-08-25 09:01:06.480 ,2,0,0.,12.0,0.,12.0,0.,12.0,0.,12.0
1981-08-25 09:01:18.480 ,2,0,0.,12.0,0.,12.0,0.,12.0,0.,12.0
1981-08-25 09:01:30.480 ,2,0,0.,12.0,0.,12.0,0.,12.0,0.,12.0
1981-08-25 09:01:42.480 ,3,0,0.,12.0,0.,12.0,0.,12.0,0.,12.0
1981-08-25 09:01:54.480 ,3,0,0.,12.0,0.,12.0,0.,12.0,0.,12.0
1981-08-25 09:02:06.480 ,3,0,0.,12.0,0.,12.0,0.,12.0,0.,12.0
1981-08-25 09:02:18.480 ,3,0,0.,12.0,0.,12.0,0.,12.0,0.,12.0
1981-08-25 09:02:30.480 ,4,0,0.,12.0,0.,12.0,0.,12.0,0.,12.0
1981-08-25 09:02:42.480 ,4,0,0.,12.0,0.,12.0,0.,12.0,0.,12.0
1981-08-25 09:02:54.480 ,4,0,0.,12.0,0.,12.0,0.,12.0,0.,12.0
1981-08-25 09:03:06.480 ,4,0,0.,12.0,0.,12.0,0.,12.0,0.,12.0
1981-08-25 09:03:18.480 ,5,0,0.,12.0,0.,12.0,0.,12.0,0.,12.0
1981-08-25 09:03:30.480 ,5,0,0.,12.0,0.,12.0,0.,12.0,0.,12.0
1981-08-25 09:03:42.480 ,5,0,0.,12.0,0.,12.0,0.,12.0,0.,12.0
1981-08-25 09:03:54.480 ,5,0,0.,12.0,0.,12.0,0.,12.0,0.,12.0
1981-08-25 09:04:06.480 ,6,0,0.,12.0,0.,12.0,0.,12.0,0.,12.0
1981-08-25 09:04:18.480 ,6,0,0.,12.0,0.,12.0,0.,12.0,0.,12.0
1981-08-25 09:04:30.480 ,6,0,0.,12.0,0.,12.0,0.,12.0,0.,12.0
1981-08-25 09:04:42.480 ,6,0,0.,12.0,0.,12.0,0.,12.0,0.,12.0
1981-08-25 09:04:54.480 ,7,0,0.,12.0,0.,12.0,0.,12.0,0.,12.0
1981-08-25 09:05:06.480 ,7,0,0.,12.0,0.,12.0,0.,12.0,0.,12.0
1981-08-25 09:05:18.480 ,7,0,0.,12.0,0.,12.0,0.,12.0,0.,12.0
1981-08-25 09:05:30.480 ,7,0,0.,12.0,0.,12.0,0.,12.0,0.,12.0
1981-08-25 09:05:42.480 ,7,0,0.,12.0,0.,12.0,0.,12.0,0.,12.0
1981-08-25 09:05:54.480 ,7,0,0.,12.0,0.,12.0,0.,12.0,0.,12.0
1981-08-25 09:06:06.480 ,7,0,0.,12.0,0.,12.0,0.,12.0,0.,12.0
1981-08-25 09:06:18.480 ,7,0,0.,12.0,0.,12.0,0.,12.0,0.,12.0
1981-08-25 09:06:30.480 ,6,0,0.,12.0,0.,12.0,0.,12.0,0.,12.0
1981-08-25 09:06:42.480 ,6,0,0.,12.0,0.,12.0,0.,12.0,0.,12.0
1981-08-25 09:06:54.480 ,6,0,0.,12.0,0.,12.0,0.,12.0,0.,12.0
1981-08-25 09:07:06.480 ,6,0,0.,12.0,0.,12.0,0.,12.0,0.,12.0
1981-08-25 09:07:18.480 ,5,0,0.,12.0,0.,12.0,0.,12.0,0.,12.0
1981-08-25 09:07:30.480 ,5,0,0.,12.0,0.,12.0,0.,12.0,0.,12.0
1981-08-25 09:07:42.480 ,5,0,0.,12.0,0.,12.0,0.,12.0,0.,12.0
1981-08-25 09:07:54.480 ,5,0,0.,12.0,0.,12.0,0.,12.0,0.,12.0
1981-08-25 09:08:06.480 ,4,0,0.,12.0,0.,12.0,0.,12.0,0.,12.0
1981-08-25 09:08:18.480 ,4,0,0.,12.0,0.,12.0,0.,12.0,0.,12.0
1981-08-25 09:08:30.480 ,4,0,0.,12.0,0.,12.0,0.,12.0,0.,12.0
1981-08-25 09:08:42.480 ,4,0,0.,12.0,0.,12.0,0.,12.0,0.,12.0
1981-08-25 09:08:54.480 ,3,0,0.,12.0,0.,12.0,0.,12.0,0.,12.0
1981-08-25 09:09:06.480 ,3,0,0.,12.0,0.,12.0,0.,12.0,0.,12.0
1981-08-25 09:09:18.480 ,3,0,0.,12.0,0.,12.0,0.,12.0,0.,12.0
1981-08-25 09:09:30.480 ,3,0,0.,12.0,0.,12.0,0.,12.0,0.,12.0
1981-08-25 09:09:42.480 ,2,0,0.,12.0,0.,12.0,0.,12.0,0.,12.0
1981-08-25 09:09:54.480 ,2,0,0.,12.0,0.,12.0,0.,12.0,0.,12.0
1981-08-25 09:10:06.480 ,2,0,0.,12.0,0.,12.0,0.,12.0,0.,12.0
1981-08-25 09:10:18.480 ,2,0,0.,12.0,0.,12.0,0.,12.0,0.,12.0
1981-08-25 09:10:30.480 ,1,0,0.,12.0,0.,12.0,0.,12.0,0.,12.0
1981-08-25 09:10:42.480 ,1,0,0.,12.0,0.,12.0,0.,12.0,0.,12.0
1981-08-25 09:10:54.480 ,1,0,0.,12.0,0.,12.0,0.,12.0,0.,12.0
1981-08-25 09:11:06.480 ,1,0,0.,12.0,0.,12.0,0.,12.0,0.,12.0
1981-08-25 09:11:18.480 ,0,0,0.,12.0,0.,12.0,0.,12.0,0.,12.0
1981-08-25 09:11:30.480 ,0,0,0.,12.0,0.,12.0,0.,12.0,0.,12.0
1981-08-25 09:11:42.480 ,0,0,0.,12.0,0.,12.0,0.,12.0,0.,12.0
1981-08-25 09:11:54.480 ,0,0,0.,12.0,0.,12.0,0.,12.0,0.,12.0
1981-08-25 09:12:06.480 ,0,0,0.,12.0,0.,12.0,0.,12.0,0.,12.0
1981-08-25 09:12:18.480 ,0,0,0.,12.0,0.,12.0,0.,12.0,0.,12.0
1981-08-25 09:12:30.480 ,0,0,0.,12.0,0.,12.0,0.,12.0,0.,12.0
1981-08-25 09:12:42.480 ,0,0,0.,12.0,0.,12.0,0.,12.0,0.,12.0
1981-08-25 09:12:54.480 ,1,0,0.,12.0,0.,12.0,0.,12.0,0.,12.0
1981-08-25 09:13:06.480 ,1,0,0.,12.0,0.,12.0,0.,12.0,0.,12.0
1981-08-25 09:13:18.480 ,1,0,0.,12.0,0.,12.0,0.,12.0,0.,12.0
1981-08-25 09:13:30.480 ,1,0,0.,12.0,0.,12.0,0.,12.0,0.,12.0
1981-08-25 09:13:42.480 ,2,0,0.,12.0,0.,12.0,0.,12.0,0.,12.0
1981-08-25 09:13:54.480 ,2,0,0.,12.0,0.,12.0,0.,12.0,0.,12.0
1981-08-25 09:14:06.480 ,2,0,0.,12.0,0.,12.0,0.,12.0,0.,12.0
1981-08-25 09:14:18.480 ,2,0,0.,12.0,0.,12.0,0.,12.0,0.,12.0
1981-08-25 09:14:30.480 ,3,0,0.,12.0,0.,12.0,0.,12.0,0.,12.0
1981-08-25 09:14:42.480 ,3,0,0.,12.0,0.,12.0,0.,12.0,0.,12.0
1981-08-25 09:14:54.480 ,3,0,0.,12.0,0.,12.0,0.,12.0,0.,12.0
1981-08-25 09:15:06.480 ,3,0,0.,12.0,0.,12.0,0.,12.0,0.,12.0
1981-08-25 09:15:18.480 ,4,0,0.,12.0,0.,12.0,0.,12.0,0.,12.0
1981-08-25 09:15:30.480 ,4,0,0.,12.0,0.,12.0,0.,12.0,0.,12.0
1981-08-25 09:15:42.480 ,4,0,0.,12.0,0.,12.0,0.,12.0,0.,12.0
1981-08-25 09:15:54.480 ,4,0,0.,12.0,0.,12.0,0.,12.0,0.,12.0
1981-08-25 09:16:06.480 ,5,0,0.,12.0,0.,12.0,0.,12.0,0.,12.0
1981-08-25 09:16:18.480 ,5,0,0.,12.0,0.,12.0,0.,12.0,0.,12.0
1981-08-25 09:16:30.480 ,5,0,0.,12.0,0.,12.0,0.,12.0,0.,12.0
1981-08-25 09:16:42.480 ,5,0,0.,12.0,0.,12.0,0.,12.0,0.,12.0
1981-08-25 09:16:54.480 ,6,0,0.,12.0,0.,12.0,0.,12.0,0.,12.0
1981-08-25 09:17:06.480 ,6,0,0.,12.0,0.,12.0,0.,12.0,0.,12.0
1981-08-25 09:17:18.480 ,6,0,0.,12.0,0.,12.0,0.,12.0,0.,12.0
1981-08-25 09:17:30.480 ,6,0,0.,12.0,0.,12.0,0.,12.0,0.,12.0
1981-08-25 09:17:42.480 ,7,0,0.,12.0,0.,12.0,0.,12.0,0.,12.0
1981-08-25 09:17:54.480 ,7,0,0.,12.0,0.,12.0,0.,12.0,0.,12.0
1981-08-25 09:18:06.480 ,7,0,0.,12.0,0.,12.0,0.,12.0,0.,12.0
1981-08-25 09:18:18.480 ,7,0,0.,12.0,0.,12.0,0.,12.0,0.,12.0
1981-08-25 09:18:30.480 ,7,0,0.,12.0,0.,12.0,0.,12.0,0.,12.0
1981-08-25 09:18:42.480 ,7,0,0.,12.0,0.,12.0,0.,12.0,0.,12.0
1981-08-25 09:18:54.480 ,7,0,0.,12.0,0.,12.0,0.,12.0,0.,12.0
1981-08-25 09:19:06.480 ,7,0,0.,12.0,0.,12.0,0.,12.0,0.,12.0
1981-08-25 09:19:18.480 ,6,0,0.,12.0,0.,12.0,0.,12.0,0.,12.0
1981-08-25 09:19:30.480 ,6,0,0.,12.0,0.,12.0,0.,12.0,0.,12.0
1981-08-25 09:19:42.480 ,6,0,0.,12.0,0.,12.0,0.,12.0,0.,12.0
1981-08-25 09:19:54.480 ,6,0,0.,12.0,0.,12.0,0.,12.0,0.,12.0
1981-08-25 09:20:06.480 ,5,0,0.,12.0,0.,12.0,0.,12.0,0.,12.0
1981-08-25 09:20:18.480 ,5,0,0.,12.0,0.,12.0,0.,12.0,0.,12.0
1981-08-25 09:20:30.480 ,5,0,0.,12.0,0.,12.0,0.,12.0,0.,12.0
1981-08-25 09:20:42.480 ,5,0,0.,12.0,0.,12.0,0.,12.0,0.,12.0
1981-08-25 09:20:54.480 ,4,0,0.,12.0,0.,12.0,0.,12.0,0.,12.0
1981-08-25 09:21:06.480 ,4,0,0.,12.0,0.,12.0,0.,12.0,0.,12.0
1981-08-25 09:21:18.480 ,4,0,0.,12.0,0.,12.0,0.,12.0,0.,12.0
1981-08-25 09:21:30.480 ,4,0,0.,12.0,0.,12.0,0.,12.0,0.,12.0
1981-08-25 09:21:42.480 ,3,0,0.,12.0,0.,12.0,0.,12.0,0.,12.0
1981-08-25 09:21:54.480 ,3,0,0.,12.0,0.,12.0,0.,12.0,0.,12.0
1981-08-25 09:22:06.480 ,3,0,0.,12.0,0.,12.0,0.,12.0,0.,12.0
1981-08-25 09:22:18.480 ,3,0,0.,12.0,0.,12.0,0.,12.0,0.,12.0
1981-08-25 09:22:30.480 ,2,0,0.,12.0,0.,12.0,0.,12.0,0.,12.0
1981-08-25 09:22:42.480 ,2,0,0.,12.0,0.,12.0,0.,12.0,0.,12.0
1981-08-25 09:22:54.480 ,2,0,0.,12.0,0.,12.0,0.,12.0,0.,12.0
1981-08-25 09:23:06.480 ,2,0,0.,12.0,0.,12.0,0.,12.0,0.,12.0
1981-08-25 09:23:18.480 ,1,0,0.,12.0,0.,12.0,0.,12.0,0.,12.0
1981-08-25 09:23:30.480 ,1,0,0.,12.0,0.,12.0,0.,12.0,0.,12.0
1981-08-25 09:23:42.480 ,1,0,0.,12.0,0.,12.0,0.,12.0,0.,12.0
1981-08-25 09:23:54.480 ,1,0,0.,12.0,0.,12.0,0.,12.0,0.,12.0
1981-08-25 09:24:06.480 ,0,0,0.,12.0,0.,12.0,0.,12.0,0.,12.0
1981-08-25 09:24:18.480 ,0,0,0.,12.0,0.,12.0,0.,12.0,0.,12.0
1981-08-25 09:24:30.480 ,0,0,0.,12.0,0.,12.0,0.,12.0,0.,12.0
1981-08-25 09:24:42.480 ,0,0,0.,12.0,0.,12.0,0.,12.0,0.,12.0
1981-08-25 09:24:54.480 ,0,0,0.,12.0,0.,12.0,0.,12.0,0.,12.0
1981-08-25 09:25:06.480 ,0,0,0.,12.0,0.,12.0,0.,12.0,0.,12.0
1981-08-25 09:25:18.480 ,0,0,0.,12.0,0.,12.0,0.,12.0,0.,12.0
1981-08-25 09:25:30.480 ,0,0,0.,12.0,0.,12.0,0.,12.0,0.,12.0
1981-08-25 09:25:42.480 ,1,0,0.,12.0,0.,12.0,0.,12.0,0.,12.0
1981-08-25 09:25:54.480 ,1,0,0.,12.0,0.,12.0,0.,12.0,0.,12.0
1981-08-25 09:26:06.480 ,1,0,0.,12.0,0.,12.0,0.,12.0,0.,12.0
1981-08-25 09:26:18.480 ,1,0,0.,12.0,0.,12.0,0.,12.0,0.,12.0
1981-08-25 09:26:30.480 ,2,0,0.,12.0,0.,12.0,0.,12.0,0.,12.0
1981-08-25 09:26:42.480 ,2,0,0.,12.0,0.,12.0,0.,12.0,0.,12.0
1981-08-25 09:26:54.480 ,2,0,0.,12.0,0.,12.0,0.,12.0,0.,12.0
1981-08-25 09:27:06.480 ,2,0,0.,12.0,0.,12.0,0.,12.0,0.,12.0
1981-08-25 09:27:18.480 ,3,0,0.,12.0,0.,12.0,0.,12.0,0.,12.0
1981-08-25 09:27:30.480 ,3,0,0.,12.0,0.,12.0,0.,12.0,0.,12.0
1981-08-25 09:27:42.480 ,3,0,0.,12.0,0.,12.0,0.,12.0,0.,12.0
1981-08-25 09:27:54.480 ,3,0,0.,12.0,0.,12.0,0.,12.0,0.,12.0
1981-08-25 09:28:06.480 ,4,0,0.,12.0,0.,12.0,0.,12.0,0.,12.0
1981-08-25 09:28:18.480 ,4,0,0.,12.0,0.,12.0,0.,12.0,0.,12.0
1981-08-25 09:28:30.480 ,4,0,0.,12.0,0.,12.0,0.,12.0,0.,12.0
1981-08-25 09:28:42.480 ,4,0,0.,12.0,0.,12.0,0.,12.0,0.,12.0
1981-08-25 09:28:54.480 ,5,0,0.,12.0,0.,12.0,0.,12.0,0.,12.0
1981-08-25 09:29:06.480 ,5,0,0.,12.0,0.,12.0,0.,12.0,0.,12.0
1981-08-25 09:29:18.480 ,5,0,0.,12.0,0.,12.0,0.,12.0,0.,12.0
1981-08-25 09:29:30.480 ,5,0,0.,12.0,0.,12.0,0.,12.0,0.,12.0
1981-08-25 09:29:42.480 ,6,0,0.,12.0,0.,12.0,0.,12.0,0.,12.0
1981-08-25 09:29:54.480 ,6,0,0.,12.0,0.,12.0,0.,12.0,0.,12.0
1981-08-25 09:30:06.480 ,6,0,0.,12.0,0.,12.0,0.,12.0,0.,12.0
1981-08-25 09:30:18.480 ,6,0,0.,12.0,0.,12.0,0.,12.0,0.,12.0
1981-08-25 09:30:30.480 ,7,0,0.,12.0,0.,12.0,0.,12.0,0.,12.0
1981-08-25 09:30:42.480 ,7,0,0.,12.0,0.,12.0,0.,12.0,0.,12.0
1981-08-25 09:30:54.480 ,7,0,0.,12.0,0.,12.0,0.,12.0,0.,12.0
1981-08-25 09:31:06.480 ,7,0,0.,12.0,0.,12.0,0.,12.0,0.,12.0
1981-08-25 09:31:18.480 ,7,0,0.,12.0,0.,12.0,0.,12.0,0.,12.0
1981-08-25 09:31:30.480 ,7,0,0.,12.0,0.,12.0,0.,12.0,0.,12.0
1981-08-25 09:31:42.480 ,7,0,0.,12.0,0.,12.0,0.,12.0,0.,12.0
1981-08-25 09:31:54.480 ,7,0,0.,12.0,0.,12.0,0.,12.0,0.,12.0
1981-08-25 09:32:06.480 ,6,0,0.,12.0,0.,12.0,0.,12.0,0.,12.0
1981-08-25 09:32:18.480 ,6,0,0.,12.0,0.,12.0,0.,12.0,0.,12.0
1981-08-25 09:32:30.480 ,6,0,0.,12.0,0.,12.0,0.,12.0,0.,12.0
1981-08-25 09:32:42.480 ,6,0,0.,12.0,0.,12.0,0.,12.0,0.,12.0
1981-08-25 09:32:54.480 ,5,0,0.,12.0,0.,12.0,0.,12.0,0.,12.0
1981-08-25 09:33:06.480 ,5,0,0.,12.0,0.,12.0,0.,12.0,0.,12.0
1981-08-25 09:33:18.480 ,5,0,0.,12.0,0.,12.0,0.,12.0,0.,12.0
1981-08-25 09:33:30.480 ,5,0,0.,12.0,0.,12.0,0.,12.0,0.,12.0
1981-08-25 09:33:42.480 ,4,0,0.,12.0,0.,12.0,0.,12.0,0.,12.0
1981-08-25 09:33:54.480 ,4,0,0.,12.0,0.,12.0,0.,12.0,0.,12.0
1981-08-25 09:34:06.480 ,4,0,0.,12.0,0.,12.0,0.,12.0,0.,12.0
1981-08-25 09:34:18.480 ,4,0,0.,12.0,0.,12.0,0.,12.0,0.,12.0
1981-08-25 09:34:30.480 ,0,0,,0,,0,,0,,0
1981-08-25 09:34:42.480 ,0,0,,0,,0,,0,,0
1981-08-25 09:34:54.480 ,0,0,,0,,0,,0,,0
1981-08-25 09:35:06.480 ,0,0,,0,,0,,0,,0
1981-08-25 09:34:54.480 ,3,0,0.,12.0,0.,12.0,0.,12.0,0.,12.0
1981-08-25 09:35:06.480 ,3,0,0.,12.0,0.,12.0,0.,12.0,0.,12.0
1981-08-25 09:35:18.480 ,2,0,0.,12.0,0.,12.0,0.,12.0,0.,12.0
1981-08-25 09:35:30.480 ,2,0,0.,12.0,0.,12.0,0.,12.0,0.,12.0
1981-08-25 09:35:42.480 ,2,0,0.,12.0,0.,12.0,0.,12.0,0.,12.0
1981-08-25 09:35:54.480 ,2,0,0.,12.0,0.,12.0,0.,12.0,0.,12.0
1981-08-25 09:36:06.480 ,1,0,0.,12.0,0.,12.0,0.,12.0,0.,12.0
1981-08-25 09:36:18.480 ,1,0,0.,12.0,0.,12.0,0.,12.0,0.,12.0
1981-08-25 09:36:30.480 ,1,0,0.,12.0,0.,12.0,0.,12.0,0.,12.0
1981-08-25 09:36:42.480 ,1,0,0.,12.0,0.,12.0,0.,12.0,0.,12.0
1981-08-25 09:36:54.480 ,0,0,0.,12.0,0.,12.0,0.,12.0,0.,12.0
1981-08-25 09:37:06.480 ,0,0,0.,12.0,0.,12.0,0.,12.0,0.,12.0
1981-08-25 09:37:18.480 ,0,0,0.,12.0,0.,12.0,0.,12.0,0.,12.0
1981-08-25 09:37:30.480 ,0,0,0.,12.0,0.,12.0,0.,12.0,0.,12.0
1981-08-25 09:38:30.480 ,0,0,0.,12.0,0.,12.0,0.,12.0,0.,12.0
1981-08-25 09:38:42.480 ,0,0,0.,12.0,0.,12.0,0.,12.0,0.,12.0
1981-08-25 09:38:54.480 ,0,0,0.,12.0,0.,12.0,0.,12.0,0.,12.0
1981-08-25 09:39:06.480 ,0,0,0.,12.0,0.,12.0,0.,12.0,0.,12.0
1981-08-25 09:39:18.480 ,2,0,0.,12.0,0.,12.0,0.,12.0,0.,12.0
1981-08-25 09:39:30.480 ,2,0,0.,12.0,0.,12.0,0.,12.0,0.,12.0
1981-08-25 09:39:42.480 ,2,0,0.,12.0,0.,12.0,0.,12.0,0.,12.0
1981-08-25 09:39:54.480 ,2,0,0.,12.0,0.,12.0,0.,12.0,0.,12.0
1981-08-25 09:40:06.480 ,3,0,0.,12.0,0.,12.0,0.,12.0,0.,12.0
1981-08-25 09:40:18.480 ,3,0,0.,12.0,0.,12.0,0.,12.0,0.,12.0
1981-08-25 09:40:30.480 ,3,0,0.,12.0,0.,12.0,0.,12.0,0.,12.0
1981-08-25 09:40:42.480 ,3,0,0.,12.0,0.,12.0,0.,12.0,0.,12.0
1981-08-25 09:40:54.480 ,4,0,0.,12.0,0.,12.0,0.,12.0,0.,12.0
1981-08-25 09:41:06.480 ,4,0,0.,12.0,0.,12.0,0.,12.0,0.,12.0
1981-08-25 09:41:18.480 ,4,0,0.,12.0,0.,12.0,0.,12.0,0.,12.0
1981-08-25 09:41:30.480 ,4,0,0.,12.0,0.,12.0,0.,12.0,0.,12.0
1981-08-25 09:41:42.480 ,5,0,0.,12.0,0.,12.0,0.,12.0,0.,12.0
1981-08-25 09:41:54.480 ,5,0,0.,12.0,0.,12.0,0.,12.0,0.,12.0
1981-08-25 09:42:06.480 ,5,0,0.,12.0,0.,12.0,0.,12.0,0.,12.0
1981-08-25 09:42:18.480 ,5,0,0.,12.0,0.,12.0,0.,12.0,0.,12.0
1981-08-25 09:42:30.480 ,6,0,0.,12.0,0.,12.0,0.,12.0,0.,12.0
1981-08-25 09:42:42.480 ,6,0,0.,12.0,0.,12.0,0.,12.0,0.,12.0
1981-08-25 09:42:54.480 ,6,0,0.,12.0,0.,12.0,0.,12.0,0.,12.0
1981-08-25 09:43:06.480 ,6,0,0.,12.0,0.,12.0,0.,12.0,0.,12.0
1981-08-25 09:43:18.480 ,7,0,0.,12.0,0.,12.0,0.,12.0,0.,12.0
1981-08-25 09:43:30.480 ,7,0,0.,12.0,0.,12.0,0.,12.0,0.,12.0
1981-08-25 09:43:42.480 ,7,0,0.,12.0,0.,12.0,0.,12.0,0.,12.0
1981-08-25 09:43:54.480 ,7,0,0.,12.0,0.,12.0,0.,12.0,0.,12.0
1981-08-25 09:44:06.480 ,7,0,0.,12.0,0.,12.0,0.,12.0,0.,12.0
1981-08-25 09:44:18.480 ,7,0,0.,12.0,0.,12.0,0.,12.0,0.,12.0
1981-08-25 09:44:30.480 ,7,0,0.,12.0,0.,12.0,0.,12.0,0.,12.0
1981-08-25 09:44:42.480 ,7,0,0.,12.0,0.,12.0,0.,12.0,0.,12.0
1981-08-25 09:44:54.480 ,6,0,0.,12.0,0.,12.0,0.,12.0,0.,12.0
1981-08-25 09:45:06.480 ,6,0,0.,12.0,0.,12.0,0.,12.0,0.,12.0
1981-08-25 09:45:18.480 ,6,0,0.,12.0,0.,12.0,0.,12.0,0.,12.0
1981-08-25 09:45:30.480 ,6,0,0.,12.0,0.,12.0,0.,12.0,0.,12.0
1981-08-25 09:45:42.480 ,5,0,0.,12.0,0.,12.0,0.,12.0,0.,12.0
1981-08-25 09:45:54.480 ,5,0,0.,12.0,0.,12.0,0.,12.0,0.,12.0
1981-08-25 09:46:06.480 ,5,0,0.,12.0,0.,12.0,0.,12.0,0.,12.0
1981-08-25 09:46:18.480 ,5,0,0.,12.0,0.,12.0,0.,12.0,0.,12.0
1981-08-25 09:46:30.480 ,4,0,0.,12.0,0.,12.0,0.,12.0,0.,12.0
1981-08-25 09:46:42.480 ,4,0,0.,12.0,0.,12.0,0.,12.0,0.,12.0
1981-08-25 09:46:54.480 ,4,0,0.,12.0,0.,12.0,0.,12.0,0.,12.0
1981-08-25 09:47:06.480 ,4,0,0.,12.0,0.,12.0,0.,12.0,0.,12.0
1981-08-25 09:47:18.480 ,3,0,0.,12.0,0.,12.0,0.,12.0,0.,12.0
1981-08-25 09:47:30.480 ,3,0,0.,12.0,0.,12.0,0.,12.0,0.,12.0
1981-08-25 09:47:42.480 ,3,0,0.,12.0,0.,12.0,0.,12.0,0.,12.0
1981-08-25 09:47:54.480 ,3,0,0.,12.0,0.,12.0,0.,12.0,0.,12.0
1981-08-25 09:48:06.480 ,2,0,0.,12.0,0.,12.0,0.,12.0,0.,12.0
1981-08-25 09:48:18.480 ,2,0,0.,12.0,0.,12.0,0.,12.0,0.,12.0
1981-08-25 09:48:30.480 ,2,0,0.,12.0,0.,12.0,0.,12.0,0.,12.0
1981-08-25 09:48:42.480 ,2,0,0.,12.0,0.,12.0,0.,12.0,0.,12.0
1981-08-25 09:48:54.480 ,1,0,0.,12.0,0.,12.0,0.,12.0,0.,12.0
1981-08-25 09:49:06.480 ,1,0,0.,12.0,0.,12.0,0.,12.0,0.,12.0
1981-08-25 09:49:18.480 ,1,0,0.,12.0,0.,12.0,0.,12.0,0.,12.0
1981-08-25 09:49:30.480 ,1,0,0.,12.0,0.,12.0,0.,12.0,0.,12.0
1981-08-25 09:49:42.480 ,0,0,0.,12.0,0.,12.0,0.,12.0,0.,12.0
1981-08-25 09:49:54.480 ,0,0,0.,12.0,0.,12.0,0.,12.0,0.,12.0
1981-08-25 09:50:06.480 ,0,0,0.,12.0,0.,12.0,0.,12.0,0.,12.0
1981-08-25 09:50:18.480 ,0,0,0.,12.0,0.,12.0,0.,12.0,0.,12.0
1981-08-25 09:50:30.480 ,0,0,0.,12.0,0.,12.0,0.,12.0,0.,12.0
1981-08-25 09:50:42.480 ,0,0,0.,12.0,0.,12.0,0.,12.0,0.,12.0
1981-08-25 09:50:54.480 ,0,0,0.,12.0,0.,12.0,0.,12.0,0.,12.0
1981-08-25 09:51:06.480 ,0,0,0.,12.0,0.,12.0,0.,12.0,0.,12.0
1981-08-25 09:51:18.480 ,1,0,0.,12.0,0.,12.0,0.,12.0,0.,12.0
1981-08-25 09:51:30.480 ,1,0,0.,12.0,0.,12.0,0.,12.0,0.,12.0
1981-08-25 09:51:42.480 ,1,0,0.,12.0,0.,12.0,0.,12.0,0.,12.0
1981-08-25 09:51:54.480 ,1,0,,0,,0,,0,,0
1981-08-25 09:52:06.480 ,2,0,0.,12.0,0.,12.0,0.,12.0,0.,12.0
1981-08-25 09:52:18.480 ,2,0,0.,12.0,0.,12.0,0.,12.0,0.,12.0
1981-08-25 09:52:30.480 ,2,0,0.,12.0,0.,12.0,0.,12.0,0.,12.0
1981-08-25 09:52:42.480 ,2,0,0.,12.0,0.,12.0,0.,12.0,0.,12.0
1981-08-25 09:52:54.480 ,3,0,0.,12.0,0.,12.0,0.,12.0,0.,12.0
1981-08-25 09:53:06.480 ,3,0,0.,12.0,0.,12.0,0.,12.0,0.,12.0
1981-08-25 09:53:18.480 ,3,0,0.,12.0,0.,12.0,0.,12.0,0.,12.0
1981-08-25 09:53:30.480 ,3,0,0.,12.0,0.,12.0,0.,12.0,0.,12.0
1981-08-25 09:53:42.480 ,4,0,0.,12.0,0.,12.0,0.,12.0,0.,12.0
1981-08-25 09:53:54.480 ,4,0,0.,12.0,0.,12.0,0.,12.0,0.,12.0
1981-08-25 09:54:06.480 ,4,0,0.,12.0,0.,12.0,0.,12.0,0.,12.0
1981-08-25 09:54:18.480 ,4,0,0.,12.0,0.,12.0,0.,12.0,0.,12.0
1981-08-25 09:54:30.480 ,5,0,0.,12.0,0.,12.0,0.,12.0,0.,12.0
1981-08-25 09:54:42.480 ,5,0,0.,12.0,0.,12.0,0.,12.0,0.,12.0
1981-08-25 09:54:54.480 ,5,0,0.,12.0,0.,12.0,0.,12.0,0.,12.0
1981-08-25 09:55:06.480 ,5,0,0.,12.0,0.,12.0,0.,12.0,0.,12.0
1981-08-25 09:55:18.480 ,6,0,0.,12.0,0.,12.0,0.,12.0,0.,12.0
1981-08-25 09:55:30.480 ,6,0,0.,12.0,0.,12.0,0.,12.0,0.,12.0
1981-08-25 09:55:42.480 ,6,0,0.,12.0,0.,12.0,0.,12.0,0.,12.0
1981-08-25 09:55:54.480 ,6,0,0.,12.0,0.,12.0,0.,12.0,0.,12.0
1981-08-25 09:56:06.480 ,7,0,0.,12.0,0.,12.0,0.,12.0,0.,12.0
1981-08-25 09:56:18.480 ,7,0,0.,12.0,0.,12.0,0.,12.0,0.,12.0
1981-08-25 09:56:30.480 ,7,0,0.,12.0,0.,12.0,0.,12.0,0.,12.0
1981-08-25 09:56:42.480 ,7,0,0.,12.0,0.,12.0,0.,12.0,0.,12.0
1981-08-25 09:56:54.480 ,7,0,0.,12.0,0.,12.0,0.,12.0,0.,12.0
1981-08-25 09:57:06.480 ,7,0,0.,12.0,0.,12.0,0.,12.0,0.,12.0
1981-08-25 09:57:18.480 ,7,0,0.,12.0,0.,12.0,0.,12.0,0.,12.0
1981-08-25 09:57:30.480 ,7,0,0.,12.0,0.,12.0,0.,12.0,0.,12.0
1981-08-25 09:57:42.480 ,6,0,,0,,0,,0,,0
1981-08-25 09:57:54.480 ,6,0,0.,12.0,0.,12.0,0.,12.0,0.,12.0
1981-08-25 09:58:06.480 ,6,0,0.,12.0,0.,12.0,0.,12.0,0.,12.0
1981-08-25 09:58:18.480 ,6,0,0.,12.0,0.,12.0,0.,12.0,0.,12.0
1981-08-25 09:58:30.480 ,5,0,0.,12.0,0.,12.0,0.,12.0,0.,12.0
1981-08-25 09:58:42.480 ,5,0,0.,12.0,0.,12.0,0.,12.0,0.,12.0
1981-08-25 09:58:54.480 ,5,0,0.,12.0,0.,12.0,0.,12.0,0.,12.0
1981-08-25 09:59:06.480 ,5,0,0.,12.0,0.,12.0,0.,12.0,0.,12.0
1981-08-25 09:59:18.480 ,4,0,0.,12.0,0.,12.0,0.,12.0,0.,12.0
1981-08-25 09:59:30.480 ,4,0,0.,12.0,0.,12.0,0.,12.0,0.,12.0
1981-08-25 09:59:42.480 ,4,0,0.,12.0,0.,12.0,0.,12.0,0.,12.0
1981-08-25 09:59:54.480 ,4,0,0.,12.0,0.,12.0,0.,12.0,0.,12.0
1981-08-25 10:00:06.480 ,3,0,0.,12.0,0.,12.0,0.,12.0,0.,12.0
1981-08-25 10:00:18.480 ,3,0,0.,12.0,0.,12.0,0.,12.0,0.,12.0
1981-08-25 10:00:30.480 ,3,0,0.,12.0,0.,12.0,0.,12.0,0.,12.0
1981-08-25 10:00:42.480 ,3,0,0.,12.0,0.,12.0,0.,12.0,0.,12.0
1981-08-25 10:00:54.480 ,2,0,0.,12.0,0.,12.0,0.,12.0,0.,12.0
1981-08-25 10:01:06.480 ,2,0,0.,12.0,0.,12.0,0.,12.0,0.,12.0
1981-08-25 10:01:18.480 ,2,0,0.,12.0,0.,12.0,0.,12.0,0.,12.0
1981-08-25 10:01:30.480 ,2,0,0.,12.0,0.,12.0,0.,12.0,0.,12.0
1981-08-25 10:01:42.480 ,1,0,0.,12.0,0.,12.0,0.,12.0,0.,12.0
1981-08-25 10:01:54.480 ,1,0,0.,12.0,0.,12.0,0.,12.0,0.,12.0
1981-08-25 10:02:06.470 ,1,0,0.,12.0,0.,12.0,0.,12.0,0.,12.0
1981-08-25 10:02:18.480 ,1,0,0.,12.0,0.,12.0,0.,12.0,0.,12.0
1981-08-25 10:02:30.480 ,0,0,0.,12.0,0.,12.0,0.,12.0,0.,12.0
1981-08-25 10:02:42.480 ,0,0,0.,12.0,0.,12.0,0.,12.0,0.,12.0
1981-08-25 10:02:54.480 ,0,0,0.,12.0,0.,12.0,0.,12.0,0.,12.0
1981-08-25 10:03:06.480 ,0,0,0.,12.0,0.,12.0,0.,12.0,0.,12.0
1981-08-25 10:03:18.480 ,0,0,0.,12.0,0.,12.0,0.,12.0,0.,12.0
1981-08-25 10:03:30.480 ,0,0,0.,12.0,0.,12.0,0.,12.0,0.,12.0
1981-08-25 10:03:42.480 ,0,0,0.,12.0,0.,12.0,0.,12.0,0.,12.0
1981-08-25 10:03:54.480 ,0,0,0.,12.0,0.,12.0,0.,12.0,0.,12.0
1981-08-25 10:04:06.480 ,1,0,0.,12.0,0.,12.0,0.,12.0,0.,12.0
1981-08-25 10:04:18.480 ,1,0,0.,12.0,0.,12.0,0.,12.0,0.,12.0
1981-08-25 10:04:30.480 ,1,0,0.,12.0,0.,12.0,0.,12.0,0.,12.0
1981-08-25 10:04:42.480 ,1,0,0.,12.0,0.,12.0,0.,12.0,0.,12.0
1981-08-25 10:04:54.480 ,2,0,0.,12.0,0.,12.0,0.,12.0,0.,12.0
1981-08-25 10:05:06.480 ,2,0,0.,12.0,0.,12.0,0.,12.0,0.,12.0
1981-08-25 10:05:18.480 ,0,0,0.,12.0,0.,12.0,0.,12.0,0.,12.0
1981-08-25 10:05:30.480 ,0,0,0.,12.0,0.,12.0,0.,12.0,0.,12.0
1981-08-25 10:05:47.270 ,0,0,0.,12.0,0.,12.0,0.,12.0,0.,12.0
1981-08-25 10:05:59.270 ,0,0,0.,12.0,0.,12.0,0.,12.0,0.,12.0
1981-08-25 10:06:06.480 ,0,0,0.,12.0,0.,12.0,0.,12.0,0.,12.0
1981-08-25 10:06:18.480 ,0,0,0.,12.0,0.,12.0,0.,12.0,0.,12.0
1981-08-25 10:06:30.470 ,4,0,0.,12.0,0.,12.0,0.,12.0,0.,12.0
1981-08-25 10:06:42.470 ,4,0,0.,12.0,0.,12.0,0.,12.0,0.,12.0
1981-08-25 10:06:54.470 ,4,0,0.,12.0,0.,12.0,0.,12.0,0.,12.0
1981-08-25 10:07:06.470 ,4,0,0.,12.0,0.,12.0,0.,12.0,0.,12.0
1981-08-25 10:07:18.470 ,5,0,0.,12.0,0.,12.0,0.,12.0,0.,12.0
1981-08-25 10:07:30.470 ,5,0,0.,12.0,0.,12.0,0.,12.0,0.,12.0
1981-08-25 10:07:42.470 ,5,0,0.,12.0,0.,12.0,0.,12.0,0.,12.0
1981-08-25 10:07:54.470 ,5,0,0.,12.0,0.,12.0,0.,12.0,0.,12.0
1981-08-25 10:08:06.470 ,6,0,0.,12.0,0.,12.0,0.,12.0,0.,12.0
1981-08-25 10:08:18.470 ,6,0,0.,12.0,0.,12.0,0.,12.0,0.,12.0
1981-08-25 10:08:30.470 ,6,0,0.,12.0,0.,12.0,0.,12.0,0.,12.0
1981-08-25 10:08:42.470 ,6,0,0.,12.0,0.,12.0,0.,12.0,0.,12.0
1981-08-25 10:08:54.470 ,7,0,0.,12.0,0.,12.0,0.,12.0,0.,12.0
1981-08-25 10:09:06.470 ,7,0,0.,12.0,0.,12.0,0.,12.0,0.,12.0
1981-08-25 10:09:18.470 ,7,0,0.,12.0,0.,12.0,0.,12.0,0.,12.0
1981-08-25 10:09:30.470 ,7,0,0.,12.0,0.,12.0,0.,12.0,0.,12.0
1981-08-25 10:09:42.470 ,7,0,0.,12.0,0.,12.0,0.,12.0,0.,12.0
1981-08-25 10:09:54.470 ,7,0,0.,12.0,0.,12.0,0.,12.0,0.,12.0
1981-08-25 10:10:06.470 ,7,0,0.,12.0,0.,12.0,0.,12.0,0.,12.0
1981-08-25 10:10:18.470 ,7,0,0.,12.0,0.,12.0,0.,12.0,0.,12.0
1981-08-25 10:10:30.470 ,6,0,0.,12.0,0.,12.0,0.,12.0,0.,12.0
1981-08-25 10:10:42.470 ,6,0,0.,12.0,0.,12.0,0.,12.0,0.,12.0
1981-08-25 10:10:54.470 ,6,0,0.,12.0,0.,12.0,0.,12.0,0.,12.0
1981-08-25 10:11:06.470 ,6,0,0.,12.0,0.,12.0,0.,12.0,0.,12.0
1981-08-25 10:11:18.470 ,5,0,0.,12.0,0.,12.0,0.,12.0,0.,12.0
1981-08-25 10:11:30.470 ,5,0,0.,12.0,0.,12.0,0.,12.0,0.,12.0
1981-08-25 10:11:42.470 ,5,0,0.,12.0,0.,12.0,0.,12.0,0.,12.0
1981-08-25 10:11:54.470 ,5,0,0.,12.0,0.,12.0,0.,12.0,0.,12.0
1981-08-25 10:12:06.470 ,4,0,0.,12.0,0.,12.0,0.,12.0,0.,12.0
1981-08-25 10:12:18.470 ,4,0,0.,12.0,0.,12.0,0.,12.0,0.,12.0
1981-08-25 10:12:30.470 ,4,0,0.,12.0,0.,12.0,0.,12.0,0.,12.0
1981-08-25 10:12:42.470 ,4,0,0.,12.0,0.,12.0,0.,12.0,0.,12.0
1981-08-25 10:12:54.470 ,3,0,0.,12.0,0.,12.0,0.,12.0,0.,12.0
1981-08-25 10:13:06.470 ,3,0,0.,12.0,0.,12.0,0.,12.0,0.,12.0
1981-08-25 10:13:18.470 ,3,0,0.,12.0,0.,12.0,0.,12.0,0.,12.0
1981-08-25 10:13:30.470 ,3,0,0.,12.0,0.,12.0,0.,12.0,0.,12.0
1981-08-25 10:13:42.470 ,2,0,0.,12.0,0.,12.0,0.,12.0,0.,12.0
1981-08-25 10:13:54.470 ,2,0,0.,12.0,0.,12.0,0.,12.0,0.,12.0
1981-08-25 10:14:06.470 ,2,0,0.,12.0,0.,12.0,0.,12.0,0.,12.0
1981-08-25 10:14:18.470 ,2,0,0.,12.0,0.,12.0,0.,12.0,0.,12.0
1981-08-25 10:14:30.470 ,1,0,0.,12.0,0.,12.0,0.,12.0,0.,12.0
1981-08-25 10:14:42.470 ,1,0,0.,12.0,0.,12.0,0.,12.0,0.,12.0
1981-08-25 10:14:54.470 ,1,0,0.,12.0,0.,12.0,0.,12.0,0.,12.0
1981-08-25 10:15:06.470 ,1,0,0.,12.0,0.,12.0,0.,12.0,0.,12.0
1981-08-25 10:15:18.470 ,0,0,0.,12.0,0.,12.0,0.,12.0,0.,12.0
1981-08-25 10:15:30.470 ,0,0,0.,12.0,0.,12.0,0.,12.0,0.,12.0
1981-08-25 10:15:42.470 ,0,0,0.,12.0,0.,12.0,0.,12.0,0.,12.0
1981-08-25 10:15:54.470 ,0,0,0.,12.0,0.,12.0,0.,12.0,0.,12.0
1981-08-25 10:16:06.470 ,0,0,0.,12.0,0.,12.0,0.,12.0,0.,12.0
1981-08-25 10:16:18.470 ,0,0,0.,12.0,0.,12.0,0.,12.0,0.,12.0
1981-08-25 10:16:30.470 ,0,0,0.,12.0,0.,12.0,0.,12.0,0.,12.0
1981-08-25 10:16:42.470 ,0,0,0.,12.0,0.,12.0,0.,12.0,0.,12.0
1981-08-25 10:16:54.470 ,1,0,0.,12.0,0.,12.0,0.,12.0,0.,12.0
1981-08-25 10:17:06.470 ,1,0,0.,12.0,0.,12.0,0.,12.0,0.,12.0
1981-08-25 10:17:18.470 ,1,0,0.,12.0,0.,12.0,0.,12.0,0.,12.0
1981-08-25 10:17:30.470 ,1,0,0.,12.0,0.,12.0,0.,12.0,0.,12.0
1981-08-25 10:17:42.470 ,2,0,0.,12.0,0.,12.0,0.,12.0,0.,12.0
1981-08-25 10:17:54.470 ,2,0,0.,12.0,0.,12.0,0.,12.0,0.,12.0
1981-08-25 10:18:06.470 ,2,0,0.,12.0,0.,12.0,0.,12.0,0.,12.0
1981-08-25 10:18:18.470 ,2,0,0.,12.0,0.,12.0,0.,12.0,0.,12.0